sat.trackr.live / text

‹ back to catalog

APSTAR-6C

NORAD 43450 · 2018-041A

PAYLOAD ACTIVE UNKNOWN

§ Identity

Operator
Country
PRC
Launch date
2018-05-03
Launch site
XICLF
Launch vehicle
Mass (kg)
RCS (m²)

Purposes: comms

External: N2YO · Heavens-Above · Gunter

§ Orbital elements

Epoch: 2026-05-24T12:58:49.992960Z

Period
1,436.07 min
Inclination
0.0305°
Eccentricity
0.0001823
Mean motion
1.00273723 rev/d
Perigee alt
35,778.4 km
Apogee alt
35,793.7 km
Semi-major
42,164.2 km
B*
0.0000e+0
RAAN
330.7798°
Arg perigee
21.6998°
Mean anomaly
218.3601°
Rev number
2,957

§ Raw data

APSTAR-6C1 43450U 18041A   26144.54085640 -.00000322  00000+0  00000+0 0  99952 43450   0.0305 330.7798 0001823  21.6998 218.3601  1.00273723 29571

JSON: /api/v1/satellites/43450 · /tle

For live sub-satellite position, see the globe view (requires WebGL).

§ Visibility from observer

Set your observer location to see the next 7 days of passes ≥ 10°. The values pass through the URL so the page stays shareable.

No JS? Fill the form by hand. The geolocation button needs JavaScript.